AirNav   Air Wisconsin pilot careers
 
 392 users online  

32MD Roseland Airport
Sudlersville, Maryland, USA


FAA INFORMATION EFFECTIVE 01 FEBRUARY 2018

Location

FAA Identifier: 32MD
Lat/Long: 39-11-22.0000N / 075-52-36.6000W
39-11.366667N / 075-52.610000W
39.1894444 / -75.8768333
(estimated)
Elevation: 70 ft. / 21 m (estimated)
From city: 1 mile W of SUDLERSVILLE, MD
Time zone: UTC -5 (UTC -4 during Daylight Saving Time)
Zip code: 21668

Airport Operations

Airport use: Private use. Permission required prior to landing
Activation date: 04/2006
Control tower: no
ARTCC: WASHINGTON CENTER
FSS: LEESBURG FLIGHT SERVICE STATION
Attendance: UNATNDD
Wind indicator: yes
Segmented circle: no

Nearby radio navigation aids

VOR radial/distance  VOR name  Freq  Var
ENOr270/17.0SMYRNA VORTAC111.4009W
PPMr150/21.5PHILLIPS VOR/DME108.4009W
DQOr213/31.9DUPONT VORTAC114.0010W
BALr099/36.5BALTIMORE VORTAC115.1011W
OODr235/37.8WOODSTOWN VORTAC112.8010W
ATRr315/38.5WATERLOO VOR/DME112.6009W

 
NDB name  Hdg/Dist  Freq  Var  ID
ABERDEEN163/23.434910WAPG .- .--. --.
RAINBOW259/37.136311WRNB .-. -. -...
CAMBRIDGE020/39.835510WCGE -.-. --. .

Airport Services

Runway Information

Runway 13/31

Dimensions: 3000 x 100 ft. / 914 x 30 m
Surface: turf
RUNWAY 13  RUNWAY 31
Traffic pattern: leftleft

Airport Ownership and Management from official FAA records

Ownership: Privately-owned
Owner: PAUL E SCHLOSSER
140 ROSEBUD LANE
SUDLERSVILLE, MD 21668
Phone 410-755-6500
Manager: PAUL A. SCHLOSSER
140 ROSEBUD LAND
SUDLERSVILLE, MD 21668
Phone 410-775-6500

Airport Operational Statistics

Aircraft based on the field: 4
Single engine airplanes: 3
Multi engine airplanes: 1
    

Instrument Procedures

There are no published instrument procedures at 32MD.

Some nearby airports with instrument procedures:

33N - Delaware Airpark (13 nm E)
KRJD - Ridgely Airpark (13 nm S)
KDOV - Dover Air Force Base (19 nm E)
KEVY - Summit Airport (21 nm N)
KAPG - Phillips Army Airfield (21 nm NW)
 
Loc | Ops | Rwys | IFR | FBO | Links
Com | Nav | Svcs | Stats | Notes

AirNav Hotels Sweepstakes
 
Area around 32MD (Roseland Airport)
 
Road maps at: MapQuest Bing Google
 
Aerial photo
No photo
 
Sectional chart

 
Airport distance calculator
Flying to Roseland Airport? Find the distance to fly.

From to 32MD

Sunrise and sunset
Times for 24-Feb-2018
 Local
(UTC-5)
 Zulu
(UTC)
Morning civil twilight06:1711:17
Sunrise06:4411:44
Sunset17:4922:49
Evening civil twilight18:1623:16

Current date and time
Zulu (UTC)  24-Feb-2018 10:50:21
Local (UTC-5)  24-Feb-2018 05:50:21
 
METAR
KAPG 
19nm NW 
241033Z AUTO 00000KT 3/4SM R22/1600FT BR VV002 M A3019 RMK AO2 SLPNO $
KDOV 
20nm E 
241035Z 34003KT 3/4SM BR OVC003 09/09 A3018 RMK AO2A VIS 1/2V1
KW29 
25nm SW 
241035Z AUTO 00000KT 1/2SM FG OVC002 09/09 A3018 RMK AO2
KESN 
25nm S 
241006Z AUTO 19004KT 1SM BR OVC001 10/09 A3020 RMK AO2 T00980091
KMTN 
26nm W 
241030Z AUTO 00000KT 1/2SM FG OVC003 07/07 A3020 RMK AO2
TAF
KDOV 
20nm E 
240800Z 2408/2514 13006KT 0800 FG OVC005 WS020/26035KT QNH3018INS BECMG 2413/2414 29006KT 9999 NSW OVC005 QNH3015INS BECMG 2416/2417 09009KT 6000 -RA BR OVC004 QNH3002INS TX14/2417Z TN07/2408Z
NOTAMs
Click for the latest NOTAMs
NOTAMs are issued by the DoD/FAA and will open in a separate window not controlled by AirNav.

 

 
 

Would you like to see your business listed on this page?

 If your business provides an interesting product or service to pilots, flight crews, aircraft, or users of the Roseland Airport, you should consider listing it here.  To start the listing process, click on the button below
 
Add a business
 

Other Pages about Roseland Airport

Update a link
 
Copyright © AirNav, LLC. All rights reserved. Privacy Policy  Contact